Weather History for KPOU - December, 2012

Change the Weather History Date:

Tuesday, December 4, 2012

  Actual Average Record
Temperature  
Mean Temperature 44 °F 35 °F  
Max Temperature 57 °F 45 °F 69 °F (1982)
Min Temperature 30 °F 26 °F 2 °F (1949)
Degree Days  
Heating Degree Days 21 30  
Month to date heating degree days 96 117  
Since 1 July heating degree days 1242 1395  
Cooling Degree Days 0 0  
Month to date cooling degree days 0 0  
Year to date cooling degree days 895 672  
Moisture  
Dew Point 44 °F    
Average Humidity 85    
Maximum Humidity 93    
Minimum Humidity 77    
Precipitation  
Precipitation 0.00 in 0.12 in 1.34 in (1968)
Month to date precipitation 0.13 0.49  
Year to date precipitation 32.39 43.49  
Sea Level Pressure  
Sea Level Pressure 30.16 in    
Wind  
Wind Speed 2 mph (SSE)    
Max Wind Speed 12 mph    
Max Gust Speed 16 mph    
Visibility 6 miles    
Events      
T = Trace of Precipitation, MM = Missing Value Source: NWS Daily Summary

Daily Weather History Graph

Daily Weather History Graph

Search for Another Location

Airport or City:

Trip Planner

Search our weather history database for the weather conditions in past years. The results will help you decide how hot, cold, wet, or windy it might be!

Date:

Astronomy

Dec. 04, 2012 Rise Set
Actual Time 7:06 AM EST 4:25 PM EST
Civil Twilight 6:35 AM EST 4:56 PM EST
Nautical Twilight 6:00 AM EST 5:31 PM EST
Astronomical Twilight 5:27 AM EST 6:04 PM EST
Moon 10:13 PM EST (12/4) 10:56 AM EST (12/4)
Length of Visible Light 10h 21m
Length of Day
9h 19m
Waning Gibbous, 69% of the Moon is Illuminated
Dec 4
Waning Gibbous
Dec 6
Last Quarter
Dec 13
New
Dec 20
First Quarter
Dec 28
Full

Hourly Weather History & Observations

Time (EST) Temp. Windchill Dew Point Humidity Pressure Visibility Wind Dir Wind Speed Gust Speed Precip Events Conditions
1:53 AM 30.9 °F 25.2 °F 28.0 °F 89% 30.26 in 7.0 mi ESE 5.8 mph - N/A   Clear
2:53 AM 30.9 °F 27.5 °F 28.9 °F 92% 30.26 in 6.0 mi SE 3.5 mph - N/A   Mostly Cloudy
3:53 AM 35.1 °F - 32.0 °F 89% 30.25 in 6.0 mi Calm Calm - N/A   Overcast
4:53 AM 37.0 °F - 35.1 °F 93% 30.25 in 6.0 mi Calm Calm - N/A   Overcast
5:53 AM 39.0 °F - 36.0 °F 89% 30.25 in 6.0 mi Calm Calm - N/A   Overcast
6:12 AM 39.2 °F - 35.6 °F 87% 30.26 in 6.0 mi Calm Calm - N/A   Overcast
6:53 AM 39.9 °F - 37.0 °F 89% 30.25 in 7.0 mi Calm Calm - N/A   Overcast
7:39 AM 41.0 °F - 37.4 °F 87% 30.25 in 6.0 mi Calm Calm - N/A   Overcast
7:51 AM 41.0 °F - 37.4 °F 87% 30.25 in 6.0 mi Calm Calm - N/A   Overcast
7:53 AM 41.0 °F - 37.9 °F 89% 30.25 in 6.0 mi Calm Calm - N/A   Overcast
8:25 AM 42.8 °F - 39.2 °F 87% 30.25 in 6.0 mi Calm Calm - N/A   Overcast
8:53 AM 43.0 °F - 39.0 °F 86% 30.25 in 6.0 mi Calm Calm - N/A   Overcast
9:50 AM 44.6 °F - 41.0 °F 87% 30.25 in 6.0 mi Calm Calm - N/A   Overcast
9:53 AM 45.0 °F - 41.0 °F 86% 30.25 in 5.0 mi Calm Calm - N/A   Overcast
10:53 AM 46.9 °F - 44.1 °F 90% 30.23 in 6.0 mi Calm Calm - N/A   Overcast
11:53 AM 52.0 °F - 46.0 °F 80% 30.19 in 8.0 mi Calm Calm - N/A   Overcast
12:11 PM 53.6 °F - 48.2 °F 82% 30.19 in 8.0 mi Variable 5.8 mph - N/A   Overcast
12:40 PM 53.6 °F - 46.4 °F 77% 30.18 in 9.0 mi Calm Calm - N/A   Overcast
12:53 PM 53.1 °F - 46.9 °F 80% 30.17 in 8.0 mi WSW 3.5 mph - N/A   Overcast
1:24 PM 53.6 °F - 48.2 °F 82% 30.15 in 6.0 mi Variable 5.8 mph - N/A   Haze
1:35 PM 53.6 °F - 48.2 °F 82% 30.14 in 6.0 mi South 8.1 mph - N/A   Haze
1:53 PM 55.0 °F - 48.9 °F 80% 30.13 in 6.0 mi SSE 9.2 mph - N/A   Haze
2:15 PM 55.4 °F - 50.0 °F 82% 30.13 in 6.0 mi SSE 5.8 mph - N/A   Haze
2:25 PM 55.4 °F - 50.0 °F 82% 30.13 in 6.0 mi South 4.6 mph - N/A   Haze
2:32 PM 55.4 °F - 50.0 °F 82% 30.13 in 6.0 mi SW 3.5 mph - N/A   Haze
2:53 PM 57.0 °F - 50.0 °F 77% 30.11 in 6.0 mi South 4.6 mph - N/A   Haze
3:53 PM 57.0 °F - 51.1 °F 81% 30.10 in 4.0 mi SSE 3.5 mph - N/A   Haze
4:53 PM 54.0 °F - 50.0 °F 86% 30.09 in 5.0 mi Calm Calm - N/A   Clear
5:53 PM 46.9 °F - 44.1 °F 90% 30.07 in 2.5 mi Calm Calm - N/A   Clear
5:55 PM 46.4 °F - 44.6 °F 93% 30.07 in 3.0 mi Calm Calm - N/A   Clear
6:53 PM 48.0 °F - 45.0 °F 89% 30.05 in 3.0 mi Calm Calm - N/A   Clear
7:53 PM 55.9 °F - 50.0 °F 80% 30.03 in 7.0 mi South 3.5 mph - N/A   Clear
8:53 PM 52.0 °F - 48.9 °F 89% 30.02 in 5.0 mi SE 5.8 mph - N/A   Partly Cloudy
9:53 PM 54.0 °F - 50.0 °F 86% 29.99 in 6.0 mi South 5.8 mph - N/A   Scattered Clouds
10:53 PM 55.0 °F - 51.1 °F 86% 29.96 in 6.0 mi South 4.6 mph - N/A   Overcast
11:53 PM 55.9 °F - 50.0 °F 80% 29.92 in 8.0 mi Variable 3.5 mph - N/A   Overcast